Flag for U.S.A. Weather past 2 weeks in Houston, Texas, U.S.A.

50 °F

Low clouds.

Feels Like: 46 °F
Forecast: 52 / 59 °F
Wind: 9 mph from North

Location: Houston Hobby Airport

Current Time: Nov 29, 2015 at 12:16:16 AM

Latest Report: Nov 28, 2015 at 10:53 PM

Visibility: 10 mi

Pressure: 30.18 "Hg

Humidity: 89%

Dew point: 47 °F

Location of HoustonLocation

Historic Weather in Houston — Graph


Houston temperature yesterday

Maximum temperature yesterday: 74 °F (at 12:53 AM)
Minimum temperature yesterday: 50 °F (at 6:58 PM)
Average temperature yesterday: 55 °F

Past Weeks' High & Low Weather Summary

High80 °F (Nov 16, 11:53 AM)100% (Nov 18, 5:00 AM)30.37 "Hg (Nov 18, 5:00 AM)
Low38 °F (Nov 23, 4:53 AM)28% (Nov 18, 3:53 PM)29.61 "Hg (Nov 17, 10:53 AM)
Average63 °F75%30.10 "Hg
* Reported Nov 13 10:53 PM — Nov 28 10:53 PM, Houston, Weather by CustomWeather, © 2015

Note: Actual official high and low records may vary slightly from our data, if they occured in-between our weather recording intervals... More about our weather records


Houston weather history for previous 24 hours

Time TempWeatherWind HumidityBarometerVisibility
10:53 PM
Sat, Nov 28
50 °FLow clouds.9 mph89%30.18 "Hg10 mi
9:53 PM50 °FLow clouds.10 mph89%30.18 "Hg10 mi
8:53 PM50 °FMostly cloudy.12 mph93%30.18 "Hg10 mi
7:53 PM50 °FLight rain. Low clouds.10 mph93%30.17 "Hg10 mi
6:58 PM50 °FLight rain. Fog.10 mph94%30.15 "Hg5 mi
5:53 PM51 °FLight rain. Low clouds.13 mph89%30.14 "Hg10 mi
4:53 PM52 °FMostly cloudy.9 mph89%30.14 "Hg9 mi
3:53 PM53 °FMostly cloudy.12 mph89%30.12 "Hg9 mi
2:53 PM53 °FLight rain. Fog.9 mph93%30.12 "Hg5 mi
1:53 PM53 °FLight rain. Low clouds.10 mph89%30.12 "Hg9 mi
12:53 PM53 °FLight rain. Low clouds.12 mph93%30.14 "Hg9 mi
12:00 PM54 °FHeavy rain. Fog.12 mph88%30.15 "Hg2 mi
10:53 AM54 °FLight rain. Fog.10 mph90%30.16 "Hg6 mi
9:53 AM53 °FLow clouds.9 mph93%30.17 "Hg10 mi
8:53 AM54 °FLight rain. Fog.8 mph93%30.16 "Hg5 mi
7:53 AM54 °FLight rain. Fog.9 mph97%30.14 "Hg5 mi
6:53 AM56 °FFog.8 mph93%30.13 "Hg6 mi
5:53 AM57 °FLow clouds.6 mph90%30.11 "Hg8 mi
4:53 AM58 °FLow clouds.7 mph90%30.09 "Hg8 mi
4:00 AM59 °FLow clouds.10 mph88%30.08 "Hg10 mi
2:53 AM61 °FLight rain. Low clouds.8 mph93%30.10 "Hg7 mi
1:53 AM74 °FMostly cloudy.No wind91%30.09 "Hg7 mi
12:53 AM74 °FMostly cloudy.No wind91%30.09 "Hg7 mi
Weather by CustomWeather, © 2015

See weather overviewHow to use our weather pages